sat.trackr.live / text

‹ back to catalog

STARLINK-5896

NORAD 55930 · 2023-037S

PAYLOAD ACTIVE UNKNOWN

§ Identity

Operator
Country
US
Launch date
2023-03-17
Launch site
AFWTR
Launch vehicle
Mass (kg)
RCS (m²)

Purposes: comms

External: N2YO · Heavens-Above · Gunter

§ Orbital elements

Epoch: 2026-09-20T22:00:03.000096Z

Period
95.90 min
Inclination
70.0009°
Eccentricity
0.0004529
Mean motion
15.01629999 rev/d
Perigee alt
558.7 km
Apogee alt
565.0 km
Semi-major
6,940.0 km
B*
2.1639e-3
RAAN
152.1492°
Arg perigee
301.4134°
Mean anomaly
113.7790°
Rev number
567

§ Raw data

STARLINK-58961 55930U 23037S   26263.91670139  .00028159  00000+0  21639-2 0  99992 55930  70.0009 152.1492 0004529 301.4134 113.7790 15.01629999  5677

JSON: /api/v1/satellites/55930 · /tle

For live sub-satellite position, see the globe view (requires WebGL).

§ Visibility from observer

Set your observer location to see the next 7 days of passes ≥ 10°. The values pass through the URL so the page stays shareable.

No JS? Fill the form by hand. The geolocation button needs JavaScript.